User: anonymous   Login
Location: Sawmill Trailhead
(33.5800°N, 116.4497°W)
Time: 03:20:09
(UTC-07:00)
Language:

Uosat F - Orbit

View from above orbital plane
View from above orbital plane
View from above satellite
View from above satellite

Ground track
Ground track

The orbit data is extracted from the following two-line orbital elements,

1 21575U 91050B   14296.84847095  .00000478  00000-0  16475-3 0  1528
2 21575 098.7153 275.2715 0006239 302.7887 116.3896 14.40453866222000
Epoch (UTC): 23 October 2014 20:21:47
Eccentricity: 0.0006239
inclination: 98.7153°
perigee height: 752 km
apogee height: 761 km
right ascension of ascending node: 275.2715°
argument of perigee: 302.7887°
revolutions per day: 14.40453866
mean anomaly at epoch: 116.3896°
orbit number at epoch: 22200

The dashed part of the orbit path shows where the satellite is in the earth's shadow,  

DLR